Location: Melizzano
(41.1500°N, 14.5000°E)
Time: 12:32:11
(UTC+00:00)

Resurs 01 Rocket - Visible Passes

Search period start: 21 September 2021 00:00
Search period end: 01 October 2021 00:00
Orbit: 633 x 645 km, 97.9° (Epoch: 21 September)

Date Brightness Start Highest point End Pass type
(mag) Time Alt. Az. Time Alt. Az. Time Alt. Az.
21 Sep 3.6 18:23:00 13° NE 18:23:00 13° NE 18:24:27 10° NNE visible
21 Sep 3.6 20:00:35 26° NNW 20:00:35 26° NNW 20:02:37 10° NNW visible
22 Sep 3.3 18:46:34 19° NE 18:46:34 19° NE 18:48:37 10° NNE visible
22 Sep 4.2 20:24:08 18° NW 20:24:08 18° NW 20:25:28 10° NNW visible
23 Sep 3.2 19:10:07 25° NNE 19:10:07 25° NNE 19:12:14 10° N visible
23 Sep 4.8 20:47:41 11° NW 20:47:41 11° NW 20:47:56 10° NW visible
24 Sep 3.4 19:33:41 25° N 19:33:41 25° N 19:35:36 10° N visible
25 Sep 3.8 18:19:40 11° NE 18:19:40 11° NE 18:20:16 10° NE visible
25 Sep 3.9 19:57:14 21° NNW 19:57:14 21° NNW 19:58:45 10° NNW visible
26 Sep 3.6 18:43:13 16° NNE 18:43:13 16° NNE 18:44:36 10° NNE visible
26 Sep 4.4 20:20:48 15° NW 20:20:48 15° NW 20:21:40 10° NNW visible
27 Sep 3.5 19:06:46 19° NNE 19:06:46 19° NNE 19:08:18 10° N visible
28 Sep 3.7 19:30:20 20° N 19:30:20 20° N 19:31:42 10° N visible
29 Sep 4.1 19:53:53 17° NNW 19:53:53 17° NNW 19:54:53 10° NNW visible
30 Sep 3.9 18:39:53 13° NNE 18:39:53 13° NNE 18:40:35 10° NNE visible
30 Sep 4.6 20:17:26 12° NNW 20:17:26 12° NNW 20:17:49 10° NNW visible
